Location: Biberen
(46.9386°N, 7.2120°E)
Time: 03:05:24
(UTC+00:00)

Daily predictions for brighter satellites

Satellite Brightness Start Highest point End
(mag) Time Altitude Azimuth Time Altitude Azimuth Time Altitude Azimuth
CENTAUR R/B 4.4 01:07:28 32° NNE 01:07:28 32° NNE 01:14:22 10° E
USA 267 4.3 01:59:20 10° ENE 02:03:56 38° E 02:03:56 38° E
Cosmos 2278 Rocket 4.2 02:10:08 22° E 02:10:08 22° E 02:12:26 10° ESE
Cosmos 2333 Rocket 3.6 02:21:06 35° NE 02:21:06 35° NE 02:24:31 10° NE
NOSS 3-2 (C) 4.2 02:20:06 65° NNE 02:20:30 66° NE 02:28:46 10° SE
SL-16 R/B 4.4 02:35:37 16° N 02:35:37 16° N 02:37:11 10° N
Cosmos 2219 Rocket 3.2 02:37:21 41° NE 02:37:21 41° NE 02:40:58 10° NNE
USA 234 3.5 02:33:57 10° ESE 02:40:24 64° NNE 02:40:52 62° N
Cosmos 2181 Rocket 4.3 02:34:26 10° N 02:49:24 - SSE 02:40:21 63° ENE
COSMOS 2455 3.7 02:49:04 41° N 02:49:04 41° N 02:53:08 10° NNE
Cosmos 2237 Rocket 3.4 02:47:34 34° SE 02:48:36 37° ESE 02:53:47 10° NE
ATLAS 3B R/B 3.0 02:47:49 47° N 02:49:36 61° NE 02:56:21 10° SE
CENTAUR R/B 3.2 02:54:44 32° NNW 02:59:00 78° NE 03:07:41 10° SE
Cosmos 2322 Rocket 4.2 03:03:58 16° NNW 03:03:58 16° NNW 03:05:45 10° N
Cosmos 1980 4.2 03:05:16 48° SE 03:06:13 54° ESE 03:11:44 10° NE
Cosmos 2360 Rocket 3.8 03:11:46 22° NNW 03:11:46 22° NNW 03:14:35 10° N
COSMOS 2428 3.1 03:11:04 53° N 03:11:04 53° N 03:15:36 10° NNE
Cosmos 1953 4.1 03:08:10 10° N 03:11:47 31° ENE 03:15:22 10° SE
ADEOS II 3.9 03:07:16 10° N 03:09:02 20° NNW 03:09:02 20° NNW
ATLAS 2AS CENTAUR R/B 3.0 03:16:30 52° SW 03:18:53 90° SE 03:26:59 10° NE
Cosmos 1707 4.1 03:21:26 36° ESE 03:21:59 38° E 03:25:39 10° NNE
ERBS 4.4 03:31:01 24° NE 03:31:01 24° NE 03:32:34 10° NE
MSX 4.2 03:26:31 10° NNE 03:32:14 63° ESE 03:37:54 10° S
CZ-2C R/B 3.7 03:28:40 10° NNE 03:33:36 42° E 03:38:27 10° SSE
Cosmos 1709 Rocket 4.4 03:34:58 44° NW 03:34:58 44° NW 03:40:20 10° N
Cosmos 2228 4.3 03:30:41 10° N 03:34:43 40° ENE 03:38:42 10° SE
NOSS 0 Rocket 3.8 03:33:20 51° SW 03:35:00 84° WNW 03:41:15 10° NNE
Cosmos 1025 Rocket 4.3 03:40:25 29° N 03:40:25 29° N 03:42:41 10° N
IDEFIX/ARIANE 42P 2.4 03:34:40 10° NNE 03:39:56 79° WNW 03:41:20 50° SSW
BREEZE-M DEB (TANK) 4.2 03:43:32 24° ENE 03:43:32 24° ENE 03:44:35 10° ENE
PSLV R/B 3.7 03:38:11 10° N 03:41:40 57° NNW 03:41:40 57° NNW
Cosmos 2184 Rocket 3.9 03:36:26 10° S 03:42:38 88° ESE 03:48:59 10° N
SL-16 R/B 3.5 03:38:05 10° S 03:43:16 39° ESE 03:48:29 10° NE
NOSS 3-2 (A) 4.5 03:45:57 38° WSW 03:45:59 38° WSW 03:53:30 10° S
RESURS DK-1 3.7 03:44:37 17° S 03:47:24 38° ESE 03:51:16 10° NE
USA 267 3.2 03:42:16 10° NE 03:48:47 69° NNW 03:51:17 40° W
Nadezhda 3 Rocket 4.3 03:43:37 10° N 03:50:01 71° E 03:56:19 10° SSE
Cosmos 2278 Rocket 2.5 03:52:09 43° SW 03:52:09 43° SW 03:56:51 10° S
Cosmos 676 Rocket 4.4 03:48:03 10° S 03:53:15 63° ESE 03:58:27 10° NNE
Cosmos 2297 4.0 03:48:58 10° NNW 03:54:44 69° ENE 04:00:27 10° SE
Cosmos 407 Rocket 3.4 03:59:53 40° SW 04:01:33 62° WNW 04:06:39 10° NNE
Cosmos 1190 Rocket 3.9 04:00:15 32° SW 04:02:43 69° WNW 04:08:00 10° NNE
Cosmos 2333 Rocket 3.1 04:03:09 30° WNW 04:03:32 30° NW 04:08:31 10° NNE
Cosmos 2058 Rocket 3.8 04:02:22 10° N 04:06:43 55° ENE 04:11:05 10° SSE
CZ-4B R/B 4.3 04:04:07 10° NNE 04:08:07 66° ESE 04:12:17 10° S
NOSS 3-2 (C) 4.5 04:07:39 25° WNW 04:11:20 38° WSW 04:18:55 10° S
Cosmos 2074 Rocket 4.0 04:06:25 10° SSW 04:12:30 55° WNW 04:18:38 10° N
Meteor 2-10 4.2 04:10:42 10° N 04:15:55 77° ENE 04:21:18 10° SSE
Meteor PRIRODA 4.3 04:15:38 10° NNE 04:19:20 57° E 04:23:00 10° S
Cosmos 2219 Rocket 3.3 04:19:05 23° WNW 04:19:54 24° NW 04:24:21 10° N
USA 234 3.5 04:17:13 10° SSE 04:23:32 50° SW 04:28:13 19° WNW
SKYMED 2 4.2 04:19:29 10° SSE 04:23:45 57° ENE 04:28:02 10° N
Cosmos 1437 Rocket 2.9 04:24:06 10° S 04:27:51 69° E 04:31:38 10° NNE
NOSS 3-4 (A) 3.7 04:25:47 23° WSW 04:29:29 53° NW 04:35:50 10° NE
NOSS 3-4 (C) 3.7 04:25:49 23° WSW 04:29:35 53° NW 04:35:56 10° NE
Cosmos 1892 Rocket 3.4 04:25:28 10° SSW 04:29:53 81° W 04:34:18 10° N
In-Cosmos 22 4.1 04:25:36 10° S 04:30:58 87° W 04:36:31 10° N
ADEOS 4.3 04:27:49 10° N 04:32:22 31° WNW 04:34:54 21° WSW
Cosmos 2237 Rocket 2.7 04:29:27 22° WSW 04:32:37 40° NW 04:38:00 10° NNE
Meteor 2-5 Rocket 4.3 04:27:03 10° S 04:32:46 64° E 04:38:38 10° NNE
ALOS 4.0 04:29:26 10° NNE 04:33:46 36° E 04:38:03 10° SSE
COSMOS 2455 4.5 04:32:14 15° NW 04:34:27 18° NNW 04:38:27 10° NNE
H-2A R/B 3.2 04:32:26 10° N 04:36:12 33° WNW 04:38:53 17° WSW
BREEZE-M DEB (TANK) 2.2 04:35:30 24° WNW 04:37:30 54° N 04:39:48 10° ENE
PSLV R/B 3.7 04:33:49 10° NNE 04:37:33 80° ESE 04:41:15 10° S
Cosmos 1140 Rocket 3.8 04:35:02 13° SW 04:39:21 44° WNW 04:44:19 10° NNE
Cosmos 1954 Rocket 4.0 04:34:25 10° SW 04:39:35 59° WNW 04:44:44 10° NNE
Cosmos 1606 Rocket 4.0 04:35:55 10° NNW 04:39:52 36° W 04:43:49 10° SSW
ATLAS 3B R/B 3.3 04:35:09 15° WNW 04:39:57 34° WSW 04:45:59 10° S
Cosmos 1908 3.2 04:39:29 10° N 04:43:21 87° E 04:47:09 10° S
Meteor 1-4 Rocket 3.2 04:41:56 22° WSW 04:43:22 30° WNW 04:46:29 10° N
Cosmos 2369 Rocket 3.0 04:40:21 10° NNW 04:45:50 52° ENE 04:51:17 10° SE
PAYLOAD A 4.4 04:41:42 10° N 04:46:12 38° WNW 04:50:48 10° SW
GP-B 3.1 04:42:48 10° S 04:47:11 62° W 04:51:36 10° N
Cosmos 1726 2.2 04:44:00 10° NNW 04:47:35 51° W 04:51:09 10° S
Cosmos 1953 3.4 04:44:51 10° NW 04:48:02 23° W 04:51:10 10° SW
CENTAUR R/B 3.8 04:42:21 10° NW 04:49:22 33° WSW 04:56:45 10° S
Cosmos 468 Rocket 4.0 04:44:14 10° NNW 04:49:26 89° ENE 04:54:34 10° SSE
Cosmos 389 Rocket 4.0 04:50:47 18° WNW 04:50:47 18° WNW 04:53:02 10° NNW
Gblst 52 Del rocket 4.2 04:46:12 16° WNW 04:50:41 70° SSW 04:56:37 10° SE
USA 116 3.6 04:50:19 10° SSE 04:53:59 76° ENE 04:57:19 10° N
CZ-4B R/B 3.3 04:50:45 10° N 04:54:30 39° WNW 04:58:03 10° SW
COSMOS 2428 4.4 04:53:06 13° WNW 04:55:21 16° NW 04:58:42 10° N
CZ-4B R/B 3.9 04:51:53 10° NNE 04:57:07 56° ESE 05:02:18 10° S
Meteor 1-31 Rocket 3.4 04:54:21 10° N 04:57:47 33° WNW 05:01:11 10° SW
Cosmos 1707 4.2 04:56:41 16° W 04:58:02 18° WNW 05:00:50 10° NNW
Cosmos 1812 Rocket 4.3 04:56:00 10° N 05:00:27 59° ENE 05:04:51 10° SSE
Cosmos 1570 Rocket 4.2 04:56:08 10° NNW 05:01:32 81° ENE 05:06:50 10° SSE
Cosmos 44 Rocket 3.7 04:58:04 10° NW 05:02:28 40° WSW 05:06:50 10° S
Cosmos 1626 Rocket 3.6 05:00:26 10° S 05:04:45 84° E 05:09:06 10° N
ERBS 4.2 05:04:03 11° NW 05:06:13 18° NNW 05:08:38 10° NNE
Cosmos 841 Rocket 4.1 05:02:32 10° NNW 05:07:47 61° ENE 05:12:58 10° SE
Okean 1-7 Rocket 4.3 05:05:46 10° SW 05:09:47 32° WNW 05:13:52 10° N
ATLAS 2AS CENTAUR R/B 3.8 05:03:59 11° W 05:10:54 35° NNW 05:18:05 10° NE
Cosmos 1674 2.8 05:07:42 10° SSW 05:11:17 46° WNW 05:14:54 10° N
CZ-2C R/B 3.3 05:07:11 10° N 05:11:40 30° WNW 05:16:05 10° WSW
Cosmos 1943 Rocket 2.3 05:06:07 10° NNW 05:11:50 89° ENE 05:17:31 10° SSE
COSMO-SKYMED 1 2.9 05:07:42 10° S 05:11:52 46° W 05:16:04 10° NNW
Cosmos 2228 4.3 05:08:53 10° NW 05:11:58 20° W 05:15:01 10° SW
BREEZE-M DEB (TANK) 3.3 05:07:32 10° WSW 05:12:19 50° SSE 05:14:58 10° E
Meteor 2-17 Rocket 4.4 05:06:48 10° SSW 05:12:47 61° WNW 05:18:47 10° N
Cosmos 1484 Rocket 3.0 05:10:02 10° N 05:13:42 47° WNW 05:17:24 10° SW
Cosmos 2208 Rocket 4.1 05:10:03 10° NNW 05:15:18 89° ENE 05:20:34 10° SSE
Cosmos 2218 Rocket 4.0 05:09:13 10° S 05:15:35 83° W 05:21:57 10° N
FENGYUN 3A 3.8 05:11:08 10° NNE 05:16:38 84° ESE 05:22:04 10° SSW
METEOR-M 4.2 05:11:56 10° NNE 05:17:19 89° WNW 05:22:40 10° SSW
IDEFIX/ARIANE 42P 4.3 05:16:12 10° NNW 05:18:41 14° NW 05:21:09 10° W
COBE Rocket 4.4 05:14:42 10° SSW 05:19:26 40° W 05:24:19 10° NNW
Cosmos 1741 Rocket 4.1 05:16:16 10° SSW 05:21:32 63° WNW 05:26:51 10° NNE
Helios 1A Rocket 3.0 05:20:02 10° N 05:24:09 64° WNW 05:28:15 10° SSW
RESURS DK-1 3.5 05:22:06 10° WSW 05:25:33 25° NW 05:29:02 10° N
Cosmos 1603 4.0 05:21:20 10° SSW 05:26:56 75° ESE 05:32:36 10° NNE
SL-16 R/B 2.7 05:22:07 10° WSW 05:27:23 38° NW 05:32:42 10° NNE
Cosmos 2263 4.5 05:21:47 10° NNW 05:27:31 78° ENE 05:33:15 10° SSE
Meteor 1-24 Rocket 3.8 05:22:25 10° SSW 05:28:10 66° WNW 05:34:08 10° N
Cosmos 1763 Rocket 3.6 05:23:26 10° NNW 05:28:30 55° WSW 05:33:27 10° S
Cosmos 540 Rocket 3.7 05:25:12 10° NNW 05:30:24 75° ENE 05:35:32 10° SSE
USA 267 4.0 05:25:16 10° NE 05:31:15 40° N 05:37:13 10° WNW
